CW9148 Weather Reports


Display with metric or nautical units.
time (UTC)temp
F
wind
direction
speed
MPH
gust
MPH
rain 1hr
in
rain 24hr
in
rain mn
in
humidity
%
barometer
mb
20260903180314 65 235 0.0 0.0 0.00 0.00 0.00 49 1015.5
20260903175840 65 211 0.0 0.0 0.00 0.00 0.00 49 1015.5
20260903175318 64 188 0.0 0.0 0.00 0.00 0.00 50 1015.5
20260903174822 64 160 0.0 0.0 0.00 0.00 0.00 50 1015.5
20260903174320 64 208 0.0 0.0 0.00 0.00 0.00 51 1015.5
20260903173846 64 213 0.0 0.0 0.00 0.00 0.00 50 1015.6
20260903173321 64 182 0.0 0.0 0.00 0.00 0.00 51 1015.6
20260903172825 64 194 0.0 0.0 0.00 0.00 0.00 52 1015.6
20260903172324 63 221 0.0 0.0 0.00 0.00 0.00 53 1015.8
20260903171824 63 198 0.0 0.0 0.00 0.00 0.00 54 1015.8
20260903171322 62 188 0.0 0.0 0.00 0.00 0.00 55 1015.8
20260903170829 62 210 0.0 0.0 0.00 0.00 0.00 55 1015.7
20260903170328 62 159 0.0 0.0 0.00 0.00 0.00 55 1015.7
20260903165853 62 185 0.0 0.0 0.00 0.00 0.00 55 1015.7
20260903165330 62 213 0.0 0.0 0.00 0.00 0.00 56 1015.7
20260903164828 62 192 0.0 0.0 0.00 0.00 0.00 55 1015.7
20260903164326 61 188 0.0 0.0 0.00 0.00 0.00 56 1015.7
20260903163822 61 151 0.0 0.0 0.00 0.00 0.00 56 1016.0
20260903163319 61 215 0.0 0.0 0.00 0.00 0.00 55 1016.0
20260903162844 60 177 0.0 0.0 0.00 0.00 0.00 54 1016.0
20260903162317 60 180 0.0 0.0 0.00 0.00 0.00 56 1016.0
20260903161815 60 187 0.0 0.0 0.00 0.00 0.00 55 1016.0
20260903161320 60 198 0.0 0.0 0.00 0.00 0.00 55 1016.0
20260903160815 59 174 0.0 0.0 0.00 0.00 0.00 56 1016.0
20260903160340 59 180 0.0 0.0 0.00 0.00 0.00 56 1016.0
20260903155836 59 200 0.0 0.0 0.00 0.00 0.00 57 1016.0
20260903155329 58 151 0.0 0.0 0.00 0.00 0.00 58 1016.1
20260903154827 58 138 0.0 0.0 0.00 0.00 0.00 58 1016.1
20260903154324 58 148 0.0 0.0 0.00 0.00 0.00 58 1016.1
20260903153830 57 144 0.0 0.0 0.00 0.00 0.00 58 1016.1
20260903153327 57 160 0.0 0.0 0.00 0.00 0.00 58 1016.1
20260903152827 57 151 0.0 0.0 0.00 0.00 0.00 57 1016.1
20260903152326 57 148 0.0 0.0 0.00 0.00 0.00 57 1016.1
20260903151852 57 148 0.0 0.0 0.00 0.00 0.00 57 1016.1
20260903151327 56 133 0.0 0.0 0.00 0.00 0.00 58 1016.1
20260903150854 56 119 0.0 0.0 0.00 0.00 0.00 58 1016.0
20260903150328 56 119 0.0 0.0 0.00 0.00 0.00 59 1016.0
20260903145823 56 119 0.0 0.0 0.00 0.00 0.00 59 1016.0
20260903145323 56 113 0.0 0.0 0.00 0.00 0.00 60 1016.1
20260903144821 56 113 0.0 0.0 0.00 0.00 0.00 60 1016.1
20260903144319 56 113 0.0 0.0 0.00 0.00 0.00 60 1016.1
20260903143819 55 113 0.0 0.0 0.00 0.00 0.00 60 1015.9
20260903143318 55 113 0.0 0.0 0.00 0.00 0.00 59 1015.9
20260903142816 55 113 0.0 0.0 0.00 0.00 0.00 59 1015.9
20260903142314 55 113 0.0 0.0 0.00 0.00 0.00 60 1015.6
20260903141900 55 113 0.0 0.0 0.00 0.00 0.00 59 1015.6
20260903141339 55 113 0.0 0.0 0.00 0.00 0.00 59 1015.6
20260903140834 55 113 0.0 0.0 0.00 0.00 0.00 59 1015.5
20260903140335 55 113 0.0 0.0 0.00 0.00 0.00 59 1015.5
20260903135835 55 113 0.0 0.0 0.00 0.00 0.00 59 1015.5
20260903135334 55 113 0.0 0.0 0.00 0.00 0.00 59 1015.5
20260903134839 55 113 0.0 0.0 0.00 0.00 0.00 59 1015.5
20260903134337 55 113 0.0 0.0 0.00 0.00 0.00 58 1015.5
20260903133841 55 113 0.0 0.0 0.00 0.00 0.00 59 1015.5
20260903133339 55 113 0.0 0.0 0.00 0.00 0.00 59 1015.5
20260903132818 55 113 0.0 0.0 0.00 0.00 0.00 59 1015.5
20260903132316 55 113 0.0 0.0 0.00 0.00 0.00 59 1015.5
20260903131817 55 119 0.0 0.0 0.00 0.00 0.00 59 1015.5
20260903131338 55 119 0.0 0.0 0.00 0.00 0.00 59 1015.5
20260903130836 55 128 0.0 0.0 0.00 0.00 0.00 59 1015.5
20260903130342 55 112 0.0 0.0 0.00 0.00 0.00 59 1015.5
20260903125837 55 113 0.0 0.0 0.00 0.00 0.00 59 1015.5
20260903125338 55 104 0.0 0.0 0.00 0.00 0.00 59 1015.6
20260903124837 55 104 0.0 0.0 0.00 0.00 0.00 59 1015.6
20260903124338 55 104 0.0 0.0 0.00 0.00 0.00 59 1015.6
20260903123816 55 121 0.0 0.0 0.00 0.00 0.00 59 1015.6
20260903123339 55 121 0.0 0.0 0.00 0.00 0.00 59 1015.6
20260903122842 55 122 0.0 0.0 0.00 0.00 0.00 60 1015.6
20260903122317 54 115 0.0 0.0 0.00 0.00 0.00 60 1015.8
20260903121815 54 117 0.0 0.0 0.00 0.00 0.00 61 1015.8
20260903121340 54 117 0.0 0.0 0.00 0.00 0.00 61 1015.8
20260903120837 54 108 0.0 0.0 0.00 0.00 0.00 62 1016.0
20260903120316 54 119 0.0 0.0 0.00 0.00 0.00 62 1016.0
20260903115821 54 110 0.0 0.0 0.00 0.00 0.00 63 1016.0
20260903115320 54 110 0.0 0.0 0.00 0.00 0.00 63 1016.0
20260903114818 54 109 0.0 0.0 0.00 0.00 0.00 64 1016.0
20260903114318 54 128 0.0 0.0 0.00 0.00 0.00 64 1016.0
20260903113841 54 116 0.0 0.0 0.00 0.00 0.00 65 1016.0
20260903113319 53 115 0.0 0.0 0.00 0.00 0.00 65 1016.0
20260903112819 53 151 0.0 0.0 0.00 0.00 0.00 65 1016.0
20260903112319 53 128 0.0 0.0 0.00 0.00 0.00 65 1016.1
20260903111818 53 128 0.0 0.0 0.00 0.00 0.00 66 1016.1
20260903111316 53 128 0.0 0.0 0.00 0.00 0.00 67 1016.1
20260903110821 53 128 0.0 0.0 0.00 0.00 0.00 67 1016.1
20260903110318 54 133 0.0 0.0 0.00 0.00 0.00 67 1016.1
20260903105817 54 119 0.0 0.0 0.00 0.00 0.00 68 1016.1
20260903105317 54 138 0.0 0.0 0.00 0.00 0.00 68 1016.1
20260903104822 54 128 0.0 0.0 0.00 0.00 0.00 68 1016.1
20260903104348 54 115 0.0 0.0 0.00 0.00 0.00 68 1016.1
20260903103825 54 142 0.0 0.0 0.00 0.00 0.00 69 1016.2
20260903103324 54 120 0.0 0.0 0.00 0.00 0.00 69 1016.2
20260903102822 54 118 0.0 0.0 0.00 0.00 0.00 69 1016.2
20260903102348 54 128 0.0 0.0 0.00 0.00 0.00 69 1016.3
20260903101854 54 123 0.0 0.0 0.00 0.00 0.00 69 1016.3
20260903101331 54 138 0.0 0.0 0.00 0.00 0.00 69 1016.3
20260903100826 54 128 0.0 0.0 0.00 0.00 0.00 69 1016.2
20260903100322 54 128 0.0 0.0 0.00 0.00 0.00 69 1016.2
20260903095847 54 123 0.0 0.0 0.00 0.00 0.00 70 1016.2
20260903095337 54 128 0.0 0.0 0.00 0.00 0.00 70 1016.4
20260903094834 54 119 0.0 0.0 0.00 0.00 0.00 70 1016.4
20260903094333 54 128 0.0 0.0 0.00 0.00 0.00 70 1016.4
20260903093832 54 116 0.0 0.0 0.00 0.00 0.00 71 1016.6
20260903093330 54 116 0.0 0.0 0.00 0.00 0.00 71 1016.6
20260903092826 54 116 0.0 0.0 0.00 0.00 0.00 71 1016.6
20260903092341 54 118 0.0 0.0 0.00 0.00 0.00 72 1016.7
20260903091830 54 121 0.0 0.0 0.00 0.00 0.00 72 1016.7
20260903091330 53 121 0.0 0.0 0.00 0.00 0.00 73 1016.7
20260903090829 53 128 0.0 0.0 0.00 0.00 0.00 73 1016.7
20260903090331 53 128 0.0 0.0 0.00 0.00 0.00 74 1016.7
20260903085828 53 128 0.0 0.0 0.00 0.00 0.00 74 1016.7
20260903085352 53 123 0.0 0.0 0.00 0.00 0.00 75 1016.8
20260903084826 53 123 0.0 0.0 0.00 0.00 0.00 76 1016.8
20260903084353 53 123 0.0 0.0 0.00 0.00 0.00 76 1016.8
20260903083832 52 123 0.0 0.0 0.00 0.00 0.00 77 1016.8
20260903083331 52 123 0.0 0.0 0.00 0.00 0.00 77 1016.8
20260903082827 52 123 0.0 0.0 0.00 0.00 0.00 77 1016.8
20260903082326 52 123 0.0 0.0 0.00 0.00 0.00 77 1016.8
20260903081851 52 123 0.0 0.0 0.00 0.00 0.00 78 1016.8
20260903081329 52 128 0.0 0.0 0.00 0.00 0.00 78 1016.8
20260903080823 52 138 0.0 0.0 0.00 0.00 0.00 78 1016.8
20260903080318 52 138 0.0 0.0 0.00 0.00 0.00 78 1016.8
20260903075816 52 142 0.0 0.0 0.00 0.00 0.00 79 1016.8
20260903075314 53 167 0.0 0.0 0.00 0.00 0.00 80 1016.8
20260903074839 53 307 0.0 0.0 0.00 0.00 0.00 79 1016.8
20260903074337 53 307 0.0 0.0 0.00 0.00 0.00 79 1016.8
20260903073835 53 307 0.0 0.0 0.00 0.00 0.00 79 1016.9
20260903073327 53 307 0.0 0.0 0.00 0.00 0.00 79 1016.9
20260903072827 53 307 0.0 0.0 0.00 0.00 0.00 78 1016.9
20260903072325 53 307 0.0 0.0 0.00 0.00 0.00 78 1016.9
20260903071825 53 307 0.0 0.0 0.00 0.00 0.00 78 1016.9
20260903071351 53 307 0.0 0.0 0.00 0.00 0.00 77 1016.9
20260903070856 53 307 0.0 0.0 0.00 0.00 0.00 77 1016.9
20260903070332 53 307 0.0 0.0 0.00 0.00 0.00 76 1016.9
20260903065824 54 307 0.0 0.0 0.00 0.00 0.00 76 1016.9
20260903065321 54 307 0.0 0.0 0.00 0.00 0.00 77 1016.9
20260903064821 54 307 0.0 0.0 0.00 0.00 0.00 77 1016.9
20260903064321 54 307 0.0 0.0 0.00 0.00 0.00 76 1016.9
20260903063842 54 307 0.0 0.0 0.00 0.00 0.00 76 1017.1
20260903063320 54 307 0.0 0.0 0.00 0.00 0.00 76 1017.1
20260903062820 54 307 0.0 0.0 0.00 0.00 0.00 75 1017.1
20260903062319 54 307 0.0 0.0 0.00 0.00 0.00 74 1017.2
20260903061818 54 307 0.0 0.0 0.00 0.00 0.00 74 1017.2
20260903061317 54 307 0.0 0.0 0.00 0.00 0.00 74 1017.2
20260903060816 54 307 0.0 0.0 0.00 0.00 0.00 75 1017.2
20260903060323 55 307 0.0 0.0 0.00 0.00 0.00 74 1017.2
20260903055822 55 307 0.0 0.0 0.00 0.00 0.00 74 1017.2
20260903055321 55 307 0.0 0.0 0.00 0.00 0.00 74 1017.4
20260903054829 55 307 0.0 0.0 0.00 0.00 0.00 74 1017.4
20260903054324 55 307 0.0 0.0 0.00 0.00 0.00 73 1017.4
20260903053823 55 307 0.0 0.0 0.00 0.00 0.00 73 1017.5
20260903053324 55 307 0.0 0.0 0.00 0.00 0.00 73 1017.5
20260903052823 55 307 0.0 0.0 0.00 0.00 0.00 73 1017.5
20260903052322 55 307 0.0 0.0 0.00 0.00 0.00 73 1017.6
20260903051823 55 307 0.0 0.0 0.00 0.00 0.00 72 1017.6
20260903051321 55 307 0.0 0.0 0.00 0.00 0.00 72 1017.6
20260903050817 55 307 0.0 0.0 0.00 0.00 0.00 73 1017.6
20260903050315 55 307 0.0 0.0 0.00 0.00 0.00 72 1017.6
20260903045841 55 307 0.0 0.0 0.00 0.00 0.00 72 1017.6
20260903045319 55 307 0.0 0.0 0.00 0.00 0.00 73 1017.6
20260903044840 55 307 0.0 0.0 0.00 0.00 0.00 72 1017.6
20260903044320 55 307 0.0 0.0 0.00 0.00 0.00 73 1017.6
20260903043820 56 307 0.0 0.0 0.00 0.00 0.00 72 1017.4
20260903043320 56 307 0.0 0.0 0.00 0.00 0.00 72 1017.4
20260903042819 56 307 0.0 0.0 0.00 0.00 0.00 71 1017.4
20260903042317 56 307 0.0 0.0 0.00 0.00 0.00 71 1017.5
20260903041815 56 307 0.0 0.0 0.00 0.00 0.00 70 1017.5
20260903041339 56 307 0.0 0.0 0.00 0.00 0.00 70 1017.5
20260903040839 57 307 0.0 0.0 0.00 0.00 0.00 69 1017.3
20260903040317 57 307 0.0 0.0 0.00 0.00 0.00 69 1017.3
20260903035815 57 307 0.0 0.0 0.00 0.00 0.00 68 1017.3
20260903035336 57 307 0.0 0.0 0.00 0.00 0.00 67 1017.2
20260903034835 57 307 0.0 0.0 0.00 0.00 0.00 67 1017.2
20260903034333 57 307 0.0 0.0 0.00 0.00 0.00 67 1017.2
20260903033831 58 307 0.0 0.0 0.00 0.00 0.00 67 1017.2
20260903033333 58 307 0.0 0.0 0.00 0.00 0.00 65 1017.2
20260903032835 58 307 0.0 0.0 0.00 0.00 0.00 65 1017.2
20260903032332 58 307 0.0 0.0 0.00 0.00 0.00 65 1017.2
20260903031831 58 307 0.0 0.0 0.00 0.00 0.00 64 1017.2
20260903031331 58 307 0.0 0.0 0.00 0.00 0.00 64 1017.2
20260903030856 59 307 0.0 0.0 0.00 0.00 0.00 63 1017.2
20260903030330 59 307 0.0 0.0 0.00 0.00 0.00 63 1017.2
20260903025829 59 307 0.0 0.0 0.00 0.00 0.00 63 1017.2
20260903025332 59 307 0.0 0.0 0.00 0.00 0.00 63 1017.2
20260903024831 59 307 0.0 0.0 0.00 0.00 0.00 64 1017.2
20260903024335 60 307 0.0 0.0 0.00 0.00 0.00 63 1017.2
20260903023831 60 307 0.0 0.0 0.00 0.00 0.00 63 1017.2
20260903023317 60 307 0.0 0.0 0.00 0.00 0.00 62 1017.2
20260903022842 60 307 0.0 0.0 0.00 0.00 0.00 62 1017.2
20260903022339 61 306 0.0 0.0 0.00 0.00 0.00 61 1017.2
20260903021839 61 296 0.0 0.0 0.00 0.00 0.00 60 1017.2
20260903021332 62 294 0.0 0.0 0.00 0.00 0.00 59 1017.2
20260903020831 62 296 0.0 0.0 0.00 0.00 0.00 57 1017.2
20260903020329 63 300 0.0 0.0 0.00 0.00 0.00 56 1017.2
20260903015825 63 307 0.0 0.0 0.00 0.00 0.00 56 1017.2
20260903015351 63 315 0.0 0.0 0.00 0.00 0.00 55 1017.2
20260903014827 63 306 0.0 0.0 0.00 0.00 0.00 55 1017.2
20260903014333 63 302 0.0 0.0 0.00 0.00 0.00 55 1017.2
20260903013831 63 311 0.0 0.0 0.00 0.00 0.00 54 1017.3
20260903013329 64 323 0.0 0.0 0.00 0.00 0.00 54 1017.3
20260903012827 64 213 0.0 0.0 0.00 0.00 0.00 53 1017.3
20260903012323 64 213 0.0 0.0 0.00 0.00 0.00 52 1017.3
20260903011818 64 277 0.0 0.0 0.00 0.00 0.00 51 1017.3
20260903011317 64 306 0.0 0.0 0.00 0.00 0.00 50 1017.3
20260903010820 64 298 0.0 0.0 0.00 0.00 0.00 50 1017.3
20260903010320 64 308 0.0 0.0 0.00 0.00 0.00 50 1017.3
20260903005821 64 265 0.0 0.0 0.00 0.00 0.00 50 1017.3
20260903005319 64 300 0.0 0.0 0.00 0.00 0.00 50 1017.3
20260903004820 65 298 0.0 0.0 0.00 0.00 0.00 48 1017.3
20260903004318 65 282 0.0 0.0 0.00 0.00 0.00 47 1017.3
20260903003845 66 304 0.0 0.0 0.00 0.00 0.00 47 1017.2
20260903003320 66 220 0.0 0.0 0.00 0.00 0.00 47 1017.2
20260903002818 66 172 0.0 0.0 0.00 0.00 0.00 46 1017.2
20260903002316 65 308 0.0 0.0 0.00 0.00 0.00 46 1017.3
20260903001815 66 301 0.0 0.0 0.00 0.00 0.00 46 1017.3
20260903001342 66 273 0.0 0.0 0.00 0.00 0.00 45 1017.3
20260903000840 66 317 0.0 0.0 0.00 0.00 0.00 44 1017.5
20260903000340 66 289 0.0 0.0 0.00 0.00 0.00 44 1017.5
20260902235816 66 190 0.0 0.0 0.00 0.00 0.00 44 1017.5
20260902235340 66 295 0.0 0.0 0.00 0.00 0.00 44 1017.4
20260902234837 67 244 0.0 0.0 0.00 0.00 0.00 43 1017.4
20260902234336 67 188 0.0 0.0 0.00 0.00 0.00 43 1017.4
20260902233835 67 281 0.0 0.0 0.00 0.00 0.00 43 1017.5
20260902233338 66 234 0.0 0.0 0.00 0.00 0.00 42 1017.5
20260902232835 66 206 0.0 0.0 0.00 0.00 0.00 41 1017.5
20260902232334 66 258 0.0 0.0 0.00 0.00 0.00 43 1017.5
20260902231834 66 182 0.0 0.0 0.00 0.00 0.00 43 1017.5
20260902231359 66 285 0.0 0.0 0.00 0.00 0.00 43 1017.5
20260902230835 66 297 0.0 0.0 0.00 0.00 0.00 42 1017.7
20260902230334 66 286 0.0 0.0 0.00 0.00 0.00 43 1017.7
20260902225833 66 280 0.0 0.0 0.00 0.00 0.00 43 1017.7
20260902225333 67 295 0.0 0.0 0.00 0.00 0.00 43 1017.7
20260902224832 67 309 0.0 0.0 0.00 0.00 0.00 42 1017.7
20260902224331 67 192 0.0 0.0 0.00 0.00 0.00 42 1017.7
20260902223823 67 304 0.0 0.0 0.00 0.00 0.00 41 1017.7
20260902223319 67 206 0.0 0.0 0.00 0.00 0.00 39 1017.7
20260902222820 68 291 0.0 0.0 0.00 0.00 0.00 38 1017.7
20260902222319 69 196 0.0 0.0 0.00 0.00 0.00 36 1017.9
20260902221816 69 191 0.0 0.0 0.00 0.00 0.00 37 1017.9
20260902221315 69 221 0.0 0.0 0.00 0.00 0.00 37 1017.9
20260902220841 69 264 0.0 0.0 0.00 0.00 0.00 36 1017.9
20260902220339 68 200 0.0 0.0 0.00 0.00 0.00 36 1017.9
20260902215832 68 234 0.0 0.0 0.00 0.00 0.00 38 1017.9
20260902215333 68 254 0.0 0.0 0.00 0.00 0.00 38 1018.0
20260902214830 68 227 0.0 0.0 0.00 0.00 0.00 38 1018.0
20260902214354 68 215 0.0 0.0 0.00 0.00 0.00 37 1018.0
20260902213833 68 197 0.0 0.0 0.00 0.00 0.00 37 1018.0
20260902213333 68 209 0.0 0.0 0.00 0.00 0.00 37 1018.0
20260902212831 68 204 0.0 0.0 0.00 0.00 0.00 38 1018.0
20260902212331 68 210 0.0 0.0 0.00 0.00 0.00 38 1018.2
20260902211856 67 190 0.0 0.0 0.00 0.00 0.00 37 1018.2
20260902211334 67 192 0.0 0.0 0.00 0.00 0.00 37 1018.2
20260902210834 67 175 0.0 0.0 0.00 0.00 0.00 38 1018.2
20260902210334 67 315 0.0 0.0 0.00 0.00 0.00 37 1018.2
20260902205834 67 300 0.0 0.0 0.00 0.00 0.00 37 1018.2
20260902205330 67 152 0.0 0.0 0.00 0.00 0.00 37 1018.3
20260902204831 67 198 0.0 0.0 0.00 0.00 0.00 38 1018.3
20260902204327 68 226 0.0 0.0 0.00 0.00 0.00 37 1018.3
20260902203821 68 213 0.0 0.0 0.00 0.00 0.00 37 1018.3
20260902203319 67 277 0.0 0.0 0.00 0.00 0.00 37 1018.3
20260902202823 67 207 0.0 0.0 0.00 0.00 0.00 38 1018.3
20260902202348 67 217 0.0 0.0 0.00 0.00 0.00 37 1018.4
20260902201821 66 182 0.0 0.0 0.00 0.00 0.00 39 1018.4
20260902201314 66 188 0.0 0.0 0.00 0.00 0.00 42 1018.4
20260902200901 65 171 0.0 0.0 0.00 0.00 0.00 41 1018.6
20260902200338 66 217 0.0 0.0 0.00 0.00 0.00 40 1018.6
20260902195832 66 154 0.0 0.0 0.00 0.00 0.00 41 1018.6
20260902195329 66 192 0.0 0.0 0.00 0.00 0.00 41 1018.6
20260902194829 65 188 0.0 0.0 0.00 0.00 0.00 42 1018.6
20260902194323 65 202 0.0 0.0 0.00 0.00 0.00 43 1018.6
20260902193817 64 207 0.0 0.0 0.00 0.00 0.00 43 1018.7
20260902193317 64 223 0.0 0.0 0.00 0.00 0.00 44 1018.7
20260902192816 64 218 0.0 0.0 0.00 0.00 0.00 44 1018.7
20260902192314 64 172 0.0 0.0 0.00 0.00 0.00 44 1018.7
20260902191838 64 240 0.0 0.0 0.00 0.00 0.00 45 1018.7
20260902191335 63 201 0.0 0.0 0.00 0.00 0.00 46 1018.7
20260902190832 63 215 0.0 0.0 0.00 0.00 0.00 46 1018.6
20260902190352 63 211 0.0 0.0 0.00 0.00 0.00 46 1018.6
20260902185831 62 215 0.0 0.0 0.00 0.00 0.00 46 1018.6
20260902185331 62 198 0.0 0.0 0.00 0.00 0.00 47 1018.7
20260902184830 62 182 0.0 0.0 0.00 0.00 0.00 47 1018.7
20260902184327 62 184 0.0 0.0 0.00 0.00 0.00 48 1018.7
20260902183851 62 219 0.0 0.0 0.00 0.00 0.00 48 1018.7
20260902183356 62 200 0.0 0.0 0.00 0.00 0.00 49 1018.7
20260902182834 62 214 0.0 0.0 0.00 0.00 0.00 49 1018.7
20260902182333 61 162 0.0 0.0 0.00 0.00 0.00 49 1018.6
20260902181831 61 195 0.0 0.0 0.00 0.00 0.00 50 1018.6
20260902181350 61 164 0.0 0.0 0.00 0.00 0.00 50 1018.6
20260902180827 61 142 0.0 0.0 0.00 0.00 0.00 50 1018.4